TimeEST,TemperatureF,Dew PointF,Humidity,Sea Level PressureIn,VisibilityMPH,Wind Direction,Wind SpeedMPH,Gust SpeedMPH,PrecipitationIn,Events,Conditions,WindDirDegrees,DateUTC
12:15 AM,30.2,21.2,69,30.04,10.0,WNW,6.9,-,N/A,,Clear,300,2013-02-17 05:15:00
12:35 AM,30.2,21.2,69,30.04,10.0,WNW,4.6,-,N/A,,Clear,290,2013-02-17 05:35:00
12:55 AM,30.2,19.4,64,30.04,10.0,WNW,5.8,-,N/A,,Clear,300,2013-02-17 05:55:00
1:15 AM,30.2,19.4,64,30.04,10.0,NW,3.5,-,N/A,,Clear,310,2013-02-17 06:15:00
1:35 AM,30.2,17.6,60,30.05,10.0,NW,4.6,-,N/A,,Clear,310,2013-02-17 06:35:00
1:55 AM,30.2,14.0,51,30.05,10.0,NW,10.4,-,N/A,,Clear,310,2013-02-17 06:55:00
2:15 AM,32.0,12.2,44,30.05,10.0,WNW,9.2,-,N/A,,Clear,290,2013-02-17 07:15:00
2:35 AM,30.2,12.2,47,30.05,10.0,WNW,8.1,-,N/A,,Clear,300,2013-02-17 07:35:00
2:55 AM,30.2,12.2,47,30.05,10.0,WNW,5.8,-,N/A,,Clear,300,2013-02-17 07:55:00
3:15 AM,28.4,12.2,51,30.06,10.0,WNW,3.5,-,N/A,,Clear,290,2013-02-17 08:15:00
3:35 AM,30.2,12.2,47,30.06,10.0,NW,8.1,-,N/A,,Clear,310,2013-02-17 08:35:00
3:55 AM,30.2,12.2,47,30.06,10.0,NW,5.8,-,N/A,,Clear,310,2013-02-17 08:55:00
4:15 AM,28.4,12.2,51,30.07,10.0,WNW,5.8,-,N/A,,Clear,290,2013-02-17 09:15:00
4:35 AM,30.2,12.2,47,30.08,10.0,WNW,8.1,-,N/A,,Clear,300,2013-02-17 09:35:00
4:55 AM,28.4,12.2,51,30.08,10.0,WNW,5.8,-,N/A,,Clear,290,2013-02-17 09:55:00
5:15 AM,28.4,10.4,47,30.09,10.0,NW,3.5,-,N/A,,Clear,310,2013-02-17 10:15:00
5:35 AM,28.4,10.4,47,30.09,10.0,Calm,Calm,-,N/A,,Clear,0,2013-02-17 10:35:00
5:55 AM,26.6,14.0,59,30.10,10.0,Calm,Calm,-,N/A,,Clear,0,2013-02-17 10:55:00
6:15 AM,24.8,17.6,74,30.11,10.0,NW,3.5,-,N/A,,Clear,310,2013-02-17 11:15:00
6:35 AM,23.0,17.6,80,30.12,10.0,Calm,Calm,-,N/A,,Clear,0,2013-02-17 11:35:00
7:15 AM,21.2,15.8,80,30.13,10.0,Calm,Calm,-,N/A,,Clear,0,2013-02-17 12:15:00
7:35 AM,23.0,17.6,80,30.13,10.0,Calm,Calm,-,N/A,,Clear,0,2013-02-17 12:35:00
8:15 AM,24.8,17.6,74,30.15,10.0,Calm,Calm,-,N/A,,Clear,0,2013-02-17 13:15:00
8:35 AM,26.6,17.6,69,30.15,10.0,Calm,Calm,-,N/A,,Clear,0,2013-02-17 13:35:00
8:55 AM,28.4,15.8,59,30.16,10.0,SW,3.5,-,N/A,,Clear,230,2013-02-17 13:55:00
9:15 AM,30.2,15.8,55,30.16,10.0,WSW,3.5,-,N/A,,Clear,240,2013-02-17 14:15:00
9:35 AM,32.0,14.0,48,30.17,10.0,WSW,4.6,-,N/A,,Clear,240,2013-02-17 14:35:00
9:55 AM,32.0,15.8,51,30.17,10.0,WSW,3.5,-,0.01,,Clear,240,2013-02-17 14:55:00
10:15 AM,32.0,17.6,55,30.16,10.0,West,5.8,-,0.01,,Clear,260,2013-02-17 15:15:00
10:35 AM,33.8,17.6,52,30.17,10.0,West,6.9,-,0.03,,Clear,260,2013-02-17 15:35:00
10:55 AM,33.8,17.6,52,30.17,10.0,West,8.1,-,0.04,,Clear,280,2013-02-17 15:55:00
11:15 AM,35.6,15.8,44,30.18,10.0,WSW,6.9,-,N/A,,Clear,240,2013-02-17 16:15:00
11:35 AM,35.6,17.6,48,30.17,10.0,West,6.9,-,0.01,,Clear,260,2013-02-17 16:35:00
11:55 AM,35.6,15.8,44,30.17,10.0,WSW,10.4,-,0.02,,Clear,250,2013-02-17 16:55:00
12:15 PM,35.6,15.8,44,30.17,10.0,West,5.8,-,0.01,,Clear,280,2013-02-17 17:15:00
12:35 PM,37.4,14.0,38,30.16,10.0,West,3.5,18.4,0.02,,Clear,260,2013-02-17 17:35:00
12:55 PM,39.2,17.6,42,30.15,10.0,SW,10.4,-,0.02,,Clear,230,2013-02-17 17:55:00
1:15 PM,39.2,17.6,42,30.15,10.0,West,8.1,-,N/A,,Clear,260,2013-02-17 18:15:00
1:55 PM,42.8,17.6,36,30.13,10.0,West,11.5,16.1,N/A,,Clear,260,2013-02-17 18:55:00
2:15 PM,42.8,14.0,31,30.13,10.0,WSW,8.1,-,N/A,,Clear,240,2013-02-17 19:15:00
2:35 PM,42.8,15.8,34,30.12,10.0,WNW,4.6,-,N/A,,Clear,290,2013-02-17 19:35:00
2:55 PM,44.6,14.0,29,30.12,10.0,West,5.8,-,N/A,,Clear,260,2013-02-17 19:55:00
3:15 PM,44.6,15.8,31,30.12,10.0,West,12.7,17.3,N/A,,Clear,260,2013-02-17 20:15:00
3:35 PM,44.6,14.0,29,30.13,10.0,WNW,5.8,-,N/A,,Clear,290,2013-02-17 20:35:00
3:55 PM,44.6,14.0,29,30.13,10.0,West,8.1,-,N/A,,Clear,280,2013-02-17 20:55:00
4:15 PM,44.6,10.4,25,30.13,10.0,Calm,Calm,-,N/A,,Clear,0,2013-02-17 21:15:00
4:35 PM,44.6,10.4,25,30.13,10.0,NNW,3.5,-,N/A,,Clear,330,2013-02-17 21:35:00
4:55 PM,44.6,8.6,23,30.13,10.0,NE,3.5,-,N/A,,Clear,50,2013-02-17 21:55:00
5:15 PM,44.6,12.2,27,30.14,10.0,North,6.9,-,N/A,,Clear,10,2013-02-17 22:15:00
5:35 PM,44.6,12.2,27,30.14,10.0,North,6.9,-,N/A,,Clear,10,2013-02-17 22:35:00
5:55 PM,42.8,10.4,27,30.15,10.0,NNW,6.9,-,N/A,,Clear,340,2013-02-17 22:55:00
6:15 PM,42.8,12.2,29,30.16,10.0,North,8.1,-,N/A,,Clear,350,2013-02-17 23:15:00
6:35 PM,41.0,12.2,31,30.17,10.0,NNW,4.6,-,N/A,,Clear,330,2013-02-17 23:35:00
6:55 PM,41.0,10.4,29,30.19,10.0,NNW,4.6,-,N/A,,Clear,340,2013-02-17 23:55:00
7:15 PM,39.2,10.4,31,30.20,10.0,NNW,4.6,-,N/A,,Clear,330,2013-02-18 00:15:00
7:55 PM,37.4,12.2,36,30.20,10.0,West,3.5,-,N/A,,Clear,280,2013-02-18 00:55:00
8:15 PM,35.6,12.2,38,30.22,10.0,Calm,Calm,-,N/A,,Clear,0,2013-02-18 01:15:00
8:35 PM,37.4,10.4,33,30.22,10.0,WNW,3.5,-,N/A,,Clear,300,2013-02-18 01:35:00
8:55 PM,33.8,17.6,52,30.22,10.0,NW,3.5,-,N/A,,Clear,320,2013-02-18 01:55:00
9:15 PM,32.0,21.2,64,30.22,10.0,Calm,Calm,-,N/A,,Clear,0,2013-02-18 02:15:00
9:35 PM,32.0,17.6,55,30.23,10.0,Calm,Calm,-,N/A,,Clear,0,2013-02-18 02:35:00
9:55 PM,32.0,19.4,60,30.24,10.0,Calm,Calm,-,N/A,,Clear,0,2013-02-18 02:55:00
10:15 PM,32.0,19.4,60,30.24,10.0,Calm,Calm,-,N/A,,Clear,0,2013-02-18 03:15:00
10:35 PM,32.0,17.6,55,30.25,10.0,Calm,Calm,-,N/A,,Clear,0,2013-02-18 03:35:00
10:55 PM,32.0,15.8,51,30.25,10.0,Calm,Calm,-,N/A,,Clear,0,2013-02-18 03:55:00
11:15 PM,32.0,17.6,55,30.25,10.0,Calm,Calm,-,N/A,,Clear,0,2013-02-18 04:15:00
11:35 PM,32.0,19.4,60,30.25,10.0,Calm,Calm,-,N/A,,Clear,0,2013-02-18 04:35:00
11:55 PM,30.2,19.4,64,30.25,10.0,Calm,Calm,-,N/A,,Clear,0,2013-02-18 04:55:00